weather.gov     
National Weather Service

Regional Weather Roundup
NWS Homepage
This page is being discontinued on March 12, 2014.
The same data is available at this site. Please update your bookmarks.
Thank you, and we apologize for the inconvenience.
Please send an email to SR-SRH.Webmaster@noaa.gov with any concerns.


Current Version
Previous Version:    01  02  03  04  05  06  07  08  09  10  11  12  13  14  15  16  17  18  19  20  21  22  23  24  25  26  
[Printable]
872
ASUS41 KLWX 250610
RWRLWX

REGIONAL WEATHER ROUNDUP
NATIONAL WEATHER SERVICE BALTIMORE MD/WASHINGTON DC
200 AM EDT SAT OCT 25 2014

Note: "FAIR" indicates few or no clouds below 12,000 feet
with no significant weather and/or obstructions to visibility.
 TC=TEMPERATURE CELSIUS

 * =Non NWS site. Station does not report precipitation (e.g. rain,
    snow, etc.), thunder, or fog.

DCZ001-MDZ009-015-VAZ040>042-051-053>054-250700-
WASHINGTON METRO

CITY           SKY/WX    TMP DP  RH WIND       PRES   REMARKS
WASHINGTON NAT CLEAR     55  38  52 NW8       29.97S
DULLES         CLEAR     41  36  82 CALM      29.97S
ANDREWS AFB    CLEAR     54  38  55 NW8       29.95S
FT BELVOIR     CLEAR     41  39  94 SE2       29.97S
QUANTICO       CLEAR     47  41  80 W3        29.98S
COLLEGE PARK*  CLEAR     48  41  76 CALM      29.95S
LEESBURG*      CLEAR     46  41  81 CALM      29.98S
MANASSAS*      CLEAR     41  41 100 CALM      29.97F
GAITHERSBURG*  CLEAR     48  36  61 NW7       29.99F

$$

MDZ006>007-011-014-250700-
BALTIMORE METRO

CITY           SKY/WX    TMP DP  RH WIND       PRES   REMARKS
BWI AIRPORT    CLEAR     48  38  68 W6        29.94S
MD SCIENCE CTR   N/A     56  38  50 MISG      29.94S
MARTIN STATE   CLEAR     52  41  66 CALM      29.95R
ANNAPOLIS      CLEAR     52  37  56 W6        29.94R
FORT MEADE*    CLEAR     41  39  93 CALM      29.97S

$$

MDZ012-015-019>023-250700-
MARYLAND EASTERN SHORE

CITY           SKY/WX    TMP DP  RH WIND       PRES   REMARKS
OCEAN CITY     CLEAR     53  40  61 NW9       29.91S
SALISBURY      CLEAR     50  41  71 CALM      29.92S
BAY BRIDGE AP*   N/A     54  39  58 NW5       29.94S
CAMBRIDGE*     CLEAR     46  43  87 NW5       29.93S
EASTON*        CLEAR     53  43  69 CALM      29.97S

$$

MDZ017>025-250700-
SOUTHERN MARYLAND

CITY           SKY/WX    TMP DP  RH WIND       PRES   REMARKS
PATUXENT RIVER CLEAR     51  38  60 W9        29.94F
ST INIGOES     CLEAR     54  36  50 NW7       29.94F
LEONARDTOWN*   CLEAR     45  36  70 W3        29.96F

$$

MDZ003>005-250700-
NORTH CENTRAL MARYLAND

CITY           SKY/WX    TMP DP  RH WIND       PRES   REMARKS
FREDERICK*     CLEAR     46  41  81 CALM      29.99S
HAGERSTOWN APT CLEAR     48  36  63 CALM      29.96F
WESTMINSTER*   CLEAR     52  39  62 W6        29.95S

$$

MDZ501>502-250700-
WESTERN MARYLAND

CITY           SKY/WX    TMP DP  RH WIND       PRES   REMARKS
OAKLAND*       PTCLDY    43  39  87 W12G17    30.02S
CUMBERLAND*    CLEAR     43  39  87 W3        30.03F

$$

VAZ025>031-250700-
SHENANDOAH VALLEY

CITY           SKY/WX    TMP DP  RH WIND       PRES   REMARKS
WINCHESTER*    CLEAR     45  34  65 CALM      29.98S
FRONT ROYAL*   FAIR      45  36  70 SW3       29.98F
LURAY*         FAIR      39  39 100 CALM      30.00S
NEW MARKET*    FAIR      35  33  91 CALM      30.00S
STAUNTON*      CLEAR     35  32  88 CALM      30.03S
WAYNESBORO*    FAIR      37  34  91 CALM      30.01S

$$

WVZ021-048>050-054>055-250700-
EASTERN WEST VIRGINIA PANHANDLE

CITY           SKY/WX    TMP DP  RH WIND       PRES   REMARKS
MARTINSBURG    CLEAR     47  36  65 S3        29.97F
PETERSBURG*    CLEAR     35  33  92 CALM      30.03S

$$

VAZ036>039-050-250700-
CENTRAL FOOTHILLS

CITY           SKY/WX    TMP DP  RH WIND       PRES   REMARKS
CHARLOTTESVILL CLEAR     43  38  82 SE5       29.97S
CULPEPER*      CLEAR     37  36  93 CALM      29.98S
ORANGE*        CLEAR     37  36  93 CALM      29.99R
GORDONSVILLE*  FAIR      38  37  98 CALM      29.97S
WARRENTON*     FAIR      36  36 100 CALM      29.97S

$$

VAZ055>057-250700-
NORTH AND CENTRAL PIEDMONT

CITY           SKY/WX    TMP DP  RH WIND       PRES   REMARKS
FREDERICKSBRG* CLEAR     42  42 100 W3        29.97S
STAFFORD*      CLEAR     37  37 100 CALM      30.01S

$$

NCZ024-NYZ072-PAZ021-071-VAZ022-071-250700-
OTHER REGIONAL OBSERVATIONS

CITY           SKY/WX    TMP DP  RH WIND       PRES   REMARKS
NEW YORK CITY  CLEAR     55  35  47 NW6       29.88R
PHILADELPHIA   PTCLDY    55  37  50 NW8       29.90S
PITTSBURGH     MOCLDY    46  39  76 CALM      30.00S
ROANOKE        CLEAR     47  36  65 W3        30.05S
RICHMOND       PTCLDY    47  43  86 CALM      29.96S
RALEIGH        PTCLDY    47  44  90 CALM      29.98S

$$

ANZ530>537-250700-
MARINE OBSERVATIONS

STATION/POSITION TIME  TEMP    WIND        PRES
                       AIR SEA DIR/SP/G
                 (UTC) (F)     (DEG/KT/KT) (MB)
THOMAS PT LIGHT  0600   55 62  300/ 12/ 14 1014.8R
BALT KEY BRIDGE  0600   57     260/  8/  9 1013.5R
COVE POINT       0600   55     320/  9/ 12 1013.9S
LEWISETTA        0600   58 60  320/  7/  9 1013.9F
SOLOMONS ISLAND  0600      63                N/A
PINEY POINT      0600          340/ 13/ 14   N/A

$$





U.S. Dept. of Commerce
NOAA National Weather Service
1325 East West Highway
Silver Spring, MD 20910
E-mail: w-nws.webmaster@noaa.gov
Page last modified: May 16, 2007
NATIONAL WEATHER SERVICE: for Safety, for Work, for Fun - FOR LIFE